DW6399 Weather Reports


Display with metric or nautical units.
time (UTC)temp
F
wind
direction
speed
MPH
gust
MPH
rain 1hr
in
rain 24hr
in
rain mn
in
humidity
%
barometer
mb
20260902153624 62 279 2.0 4.0 0.00 0.18 0.01 69 1002.9
20260902152703 62 266 3.0 9.0 0.00 0.18 0.01 69 1002.9
20260902151803 62 281 4.0 10.0 0.00 0.18 0.01 68 1002.9
20260902150903 62 280 4.0 9.0 0.00 0.18 0.01 67 1002.8
20260902150003 62 281 3.0 9.0 0.00 0.18 0.01 69 1002.8
20260902145403 63 273 3.0 8.0 0.00 0.18 0.01 68 1002.9
20260902144503 63 283 5.0 9.0 0.00 0.18 0.01 68 1002.8
20260902143624 63 290 4.0 10.0 0.00 0.18 0.01 69 1002.9
20260902142705 63 284 5.0 10.0 0.00 0.18 0.01 68 1002.8
20260902141803 63 270 3.0 11.0 0.00 0.18 0.01 68 1002.8
20260902140903 64 277 3.0 10.0 0.00 0.18 0.01 69 1002.8
20260902140004 64 266 3.0 8.0 0.00 0.18 0.01 70 1002.8
20260902135404 64 246 3.0 8.0 0.00 0.18 0.01 70 1002.7
20260902134503 64 286 4.0 11.0 0.00 0.18 0.01 70 1002.8
20260902133603 64 265 3.0 11.0 0.00 0.18 0.01 69 1002.9
20260902132703 64 218 3.0 11.0 0.00 0.18 0.01 72 1002.8
20260902131803 63 293 4.0 9.0 0.00 0.18 0.01 71 1002.8
20260902130903 63 296 5.0 12.0 0.00 0.18 0.01 72 1002.9
20260902130003 62 290 4.0 8.0 0.00 0.18 0.01 73 1002.9
20260902125403 62 291 5.0 11.0 0.00 0.18 0.01 73 1002.9
20260902124504 63 282 5.0 11.0 0.00 0.18 0.01 72 1003.0
20260902123603 63 236 3.0 8.0 0.00 0.18 0.01 71 1003.0
20260902122703 63 277 4.0 11.0 0.00 0.18 0.01 73 1003.0
20260902121824 63 281 5.0 10.0 0.00 0.18 0.01 71 1003.0
20260902120903 63 245 4.0 10.0 0.00 0.18 0.01 71 1003.0
20260902120003 63 280 6.0 14.0 0.00 0.18 0.01 69 1003.0
20260902115403 63 282 5.0 12.0 0.00 0.18 0.01 72 1003.0
20260902114503 62 267 5.0 13.0 0.00 0.18 0.01 74 1003.0
20260902113603 62 282 4.0 10.0 0.00 0.18 0.01 73 1003.0
20260902112703 61 274 3.0 9.0 0.00 0.18 0.01 75 1003.1
20260902111803 61 275 4.0 9.0 0.00 0.18 0.01 73 1003.0
20260902110903 61 284 5.0 9.0 0.00 0.18 0.01 74 1003.1
20260902110006 62 277 3.0 8.0 0.00 0.18 0.01 73 1003.0
20260902105403 61 216 3.0 8.0 0.00 0.18 0.01 76 1003.0
20260902104503 61 250 4.0 11.0 0.00 0.18 0.01 74 1003.1
20260902103603 61 283 5.0 12.0 0.00 0.18 0.01 74 1003.2
20260902102703 61 279 4.0 9.0 0.00 0.18 0.01 74 1003.1
20260902101803 62 267 4.0 11.0 0.00 0.18 0.01 74 1003.1
20260902100903 62 269 4.0 11.0 0.00 0.18 0.01 75 1003.1
20260902100003 61 269 4.0 9.0 0.00 0.18 0.01 75 1003.1
20260902095403 61 203 3.0 9.0 0.00 0.18 0.01 77 1003.1
20260902094503 60 229 4.0 10.0 0.00 0.18 0.01 79 1003.2
20260902093624 60 274 4.0 12.0 0.00 0.18 0.01 79 1003.2
20260902092724 60 181 3.0 8.0 0.00 0.18 0.01 83 1003.1
20260902091803 59 167 4.0 8.0 0.00 0.18 0.01 85 1003.1
20260902090903 58 189 3.0 9.0 0.00 0.18 0.01 85 1003.1
20260902090004 58 231 3.0 8.0 0.00 0.18 0.01 86 1003.1
20260902085403 58 178 3.0 10.0 0.00 0.18 0.01 87 1003.2
20260902084524 57 205 2.0 8.0 0.00 0.18 0.01 89 1003.1
20260902083603 57 204 3.0 8.0 0.00 0.18 0.01 89 1003.1
20260902082703 56 226 2.0 7.0 0.00 0.18 0.01 91 1003.1
20260902081824 56 207 3.0 8.0 0.00 0.18 0.01 92 1003.2
20260902080903 56 199 4.0 10.0 0.00 0.18 0.01 95 1003.0
20260902080003 55 201 2.0 7.0 0.00 0.18 0.01 96 1003.0
20260902075403 54 219 2.0 7.0 0.00 0.18 0.01 96 1003.0
20260902074503 54 214 2.0 8.0 0.00 0.18 0.01 96 1003.1
20260902073603 54 210 3.0 7.0 0.00 0.18 0.01 96 1003.0
20260902072703 54 194 3.0 6.0 0.00 0.18 0.01 96 1003.0
20260902071803 53 211 2.0 6.0 0.00 0.18 0.01 96 1002.9
20260902070903 53 218 2.0 7.0 0.00 0.18 0.01 96 1002.9
20260902070005 53 182 2.0 6.0 0.00 0.18 0.01 96 1002.9
20260902065403 53 204 3.0 7.0 0.00 0.18 0.01 97 1002.9
20260902064524 52 197 2.0 6.0 0.00 0.18 0.01 97 1002.8
20260902063603 52 200 3.0 7.0 0.00 0.18 0.01 96 1002.8
20260902062703 52 201 3.0 7.0 0.00 0.18 0.01 96 1002.7
20260902061803 52 166 2.0 6.0 0.00 0.18 0.01 96 1002.7
20260902060903 52 176 2.0 5.0 0.00 0.18 0.01 96 1002.6
20260902060024 52 181 2.0 5.0 0.00 0.18 0.01 97 1002.6
20260902055403 52 184 2.0 5.0 0.00 0.18 0.01 97 1002.6
20260902054503 52 200 3.0 7.0 0.00 0.18 0.01 96 1002.5
20260902053603 52 175 2.0 6.0 0.00 0.18 0.01 96 1002.4
20260902052703 51 175 1.0 6.0 0.00 0.18 0.01 96 1002.5
20260902051824 51 199 2.0 6.0 0.00 0.18 0.01 96 1002.4
20260902050903 51 211 3.0 6.0 0.00 0.18 0.01 96 1002.4
20260902050024 51 199 2.0 7.0 0.00 0.18 0.01 96 1002.4
20260902045403 51 204 2.0 7.0 0.00 0.18 0.01 96 1002.4
20260902044503 51 203 2.0 6.0 0.00 0.18 0.01 96 1002.4
20260902043603 51 184 2.0 6.0 0.00 0.18 0.01 96 1002.4
20260902042724 51 187 2.0 6.0 0.00 0.18 0.01 96 1002.3
20260902041803 51 199 1.0 6.0 0.00 0.18 0.01 96 1002.4
20260902040903 51 218 2.0 7.0 0.00 0.18 0.01 96 1002.4
20260902040003 51 287 1.0 3.0 0.00 0.18 0.01 96 1002.3
20260902035403 51 201 2.0 6.0 0.00 0.18 0.01 96 1002.3
20260902034503 51 205 1.0 6.0 0.00 0.18 0.01 96 1002.3
20260902033603 51 187 3.0 6.0 0.00 0.18 0.01 96 1002.4
20260902032703 51 180 1.0 5.0 0.00 0.18 0.01 96 1002.4
20260902031803 51 178 2.0 6.0 0.00 0.18 0.01 96 1002.4
20260902030903 51 177 2.0 5.0 0.00 0.18 0.01 96 1002.4
20260902030024 51 175 1.0 4.0 0.00 0.18 0.01 96 1002.4
20260902025403 50 175 1.0 4.0 0.00 0.18 0.01 96 1002.4
20260902024503 50 175 1.0 3.0 0.00 0.18 0.01 96 1002.4
20260902023603 50 175 1.0 6.0 0.00 0.18 0.01 96 1002.4
20260902022703 50 175 1.0 2.0 0.00 0.18 0.01 96 1002.3
20260902021803 50 175 1.0 3.0 0.00 0.18 0.01 96 1002.4
20260902020924 50 175 1.0 3.0 0.00 0.18 0.01 96 1002.4
20260902020003 50 174 1.0 5.0 0.00 0.18 0.01 96 1002.4
20260902015403 50 174 1.0 5.0 0.00 0.18 0.01 96 1002.4
20260902014503 50 173 1.0 5.0 0.00 0.18 0.01 96 1002.4
20260902013603 50 173 1.0 3.0 0.00 0.18 0.01 96 1002.5
20260902012703 50 173 1.0 2.0 0.00 0.18 0.01 96 1002.5
20260902011803 50 173 0.0 2.0 0.00 0.18 0.01 96 1002.6
20260902010903 50 173 1.0 3.0 0.00 0.18 0.01 96 1002.7
20260902010024 50 173 1.0 2.0 0.00 0.18 0.01 96 1002.6
20260902005403 50 173 1.0 3.0 0.00 0.18 0.01 96 1002.7
20260902004503 50 173 2.0 3.0 0.00 0.18 0.01 96 1002.7
20260902003603 50 173 1.0 3.0 0.00 0.18 0.01 96 1002.6
20260902002703 51 173 1.0 5.0 0.00 0.18 0.01 95 1002.7
20260902001803 51 173 2.0 3.0 0.00 0.18 0.01 96 1002.7
20260902000903 51 173 2.0 3.0 0.00 0.18 0.01 96 1002.7
20260902000003 51 173 1.0 3.0 0.00 0.18 0.01 96 1002.7
20260901235424 51 173 1.0 2.0 0.00 0.18 0.01 96 1002.7
20260901234503 51 173 1.0 2.0 0.00 0.18 0.01 96 1002.8
20260901233603 51 173 1.0 2.0 0.00 0.18 0.01 96 1002.8
20260901232703 51 173 1.0 3.0 0.00 0.18 0.01 96 1002.8
20260901231803 51 173 1.0 3.0 0.00 0.18 0.01 96 1002.9
20260901230903 51 173 2.0 5.0 0.00 0.18 0.01 96 1002.9
20260901230004 51 173 2.0 5.0 0.00 0.18 0.01 96 1003.0
20260901225403 51 190 2.0 5.0 0.00 0.18 0.01 96 1003.0
20260901224524 51 223 2.0 3.0 0.00 0.18 0.01 96 1003.0
20260901223603 51 223 1.0 3.0 0.01 0.18 0.01 96 1003.1
20260901222703 50 223 1.0 3.0 0.01 0.18 0.01 96 1003.1
20260901221803 50 223 1.0 3.0 0.01 0.18 0.01 96 1003.1
20260901220903 49 223 0.0 2.0 0.01 0.18 0.01 96 1003.1
20260901220003 49 223 1.0 3.0 0.01 0.18 0.01 95 1003.1
20260901215403 48 223 0.0 2.0 0.01 0.18 0.01 95 1003.2
20260901214503 48 0 0.0 0.0 0.01 0.18 0.01 94 1003.3
20260901213603 48 0 0.0 0.0 0.00 0.17 0.00 94 1003.3
20260901212703 48 0 0.0 0.0 0.00 0.17 0.00 94 1003.2
20260901211803 49 0 0.0 0.0 0.00 0.17 0.00 94 1003.3
20260901210924 49 0 0.0 0.0 0.00 0.17 0.00 93 1003.2
20260901210005 50 0 0.0 0.0 0.00 0.17 0.00 93 1003.3
20260901205403 50 0 0.0 0.0 0.00 0.17 0.17 93 1003.3
20260901204503 51 0 0.0 0.0 0.00 0.17 0.17 93 1003.3
20260901203624 52 223 0.0 3.0 0.00 0.17 0.17 93 1003.3
20260901202703 52 223 1.0 3.0 0.00 0.17 0.17 93 1003.3
20260901201803 53 223 0.0 3.0 0.00 0.17 0.17 93 1003.3
20260901200924 53 223 1.0 4.0 0.00 0.17 0.17 94 1003.3
20260901200003 54 223 1.0 4.0 0.00 0.17 0.17 94 1003.3
20260901195424 54 223 2.0 4.0 0.00 0.17 0.17 94 1003.3
20260901194503 54 223 1.0 4.0 0.00 0.17 0.17 93 1003.2
20260901193603 54 223 0.0 1.0 0.00 0.17 0.17 93 1003.2
20260901192703 55 223 1.0 3.0 0.00 0.17 0.17 93 1003.2
20260901191803 55 278 3.0 6.0 0.00 0.17 0.17 94 1003.2
20260901190903 56 276 1.0 7.0 0.00 0.17 0.17 95 1003.2
20260901190003 56 292 2.0 6.0 0.00 0.17 0.17 95 1003.2
20260901185424 56 313 2.0 4.0 0.00 0.17 0.17 94 1003.2
20260901184503 56 306 3.0 7.0 0.00 0.17 0.17 94 1003.1
20260901183603 56 304 3.0 5.0 0.00 0.17 0.17 94 1003.0
20260901182724 56 304 2.0 4.0 0.00 0.17 0.17 94 1003.1
20260901181803 55 304 2.0 3.0 0.00 0.17 0.17 93 1003.1
20260901180903 55 304 0.0 3.0 0.00 0.17 0.17 91 1003.2
20260901180024 56 0 0.0 0.0 0.00 0.17 0.17 91 1003.1
20260901175403 57 0 0.0 0.0 0.00 0.17 0.17 92 1003.0
20260901174503 58 304 0.0 3.0 0.00 0.17 0.17 92 1003.1
20260901173603 58 304 2.0 4.0 0.00 0.17 0.17 92 1002.9
20260901172703 59 304 2.0 3.0 0.00 0.17 0.17 92 1002.9
20260901171803 59 306 3.0 7.0 0.00 0.17 0.17 93 1002.8
20260901170903 59 297 3.0 6.0 0.00 0.17 0.17 93 1002.8
20260901170024 59 293 4.0 8.0 0.00 0.17 0.17 93 1002.8
20260901165403 59 293 4.0 9.0 0.00 0.17 0.17 92 1002.8
20260901164503 60 288 3.0 10.0 0.02 0.17 0.17 92 1002.7
20260901163603 60 262 1.0 6.0 0.17 0.17 0.17 93 1002.6
20260901162724 61 223 0.0 1.0 0.17 0.17 0.17 94 1002.7
20260901161803 60 0 0.0 0.0 0.17 0.17 0.17 93 1002.6
20260901160903 60 223 0.0 2.0 0.17 0.17 0.17 92 1002.6
20260901160003 60 222 1.0 3.0 0.17 0.17 0.17 90 1002.6
20260901155403 60 162 4.0 11.0 0.17 0.17 0.17 88 1002.6
20260901154503 62 182 6.0 23.0 0.15 0.15 0.15 84 1002.8